User: anonymous   Login
Location: Unspecified
(0.0000°N, 0.0000°E)
Time: 09:09:31
(UTC+01:00)
Language:

THEMIS E - Orbit

View from above orbital plane
View from above orbital plane
View from above satellite
View from above satellite

Ground track
Ground track

The orbit data is extracted from the following two-line orbital elements,

1 30798U 07004E   18323.70665486 -.00000381  00000-0  00000+0 0  9999
2 30798   5.3317 110.0902 8379205 274.3696   6.6467  0.81321886 41889
Epoch (UTC): 19 November 2018 16:57:34
Eccentricity: 0.8379205
inclination: 5.3317°
perigee height: 1480 km
apogee height: 82730 km
right ascension of ascending node: 110.0902°
argument of perigee: 274.3696°
revolutions per day: 0.81321886
mean anomaly at epoch: 6.6467°
orbit number at epoch: 4188

The dashed part of the orbit path shows where the satellite is in the earth's shadow,  

DLR